Regional Weather Roundup
Issued by NWS

Home | Current Version | Previous Version | Graphics & Text | Print | Product List | Glossary On
Versions: 1 2 3 4 5 6 7 8 9 10 11 12 13 14 15 16 17 18 19 20 21 22 23 24 25 26 27 28 29 30 31 32 33 34 35 36 37 38 39 40 41 42 43 44 45 46 47 48 49 50
000
ASUS43 KDMX 281407
RWRIA

WEATHER ROUNDUP FOR IOWA
NATIONAL WEATHER SERVICE DES MOINES IA
900 AM CDT THU MAY 28 2015

NOTE: "FAIR" INDICATES FEW OR NO CLOUDS BELOW 12,000 FEET WITH NO
SIGNIFICANT WEATHER AND/OR OBSTRUCTIONS TO VISIBILITY.

* - THESE STATIONS ARE NOT NWS STATIONS...THUS NOT UNDER NWS
QUALITY CONTROL.  THEY ALSO DO NOT REPORT WEATHER SUCH
AS PRECIPITATION OR FOG.

IAZ001>003-012>014-020>022-031>034-043>046-281500-
   NORTHWEST IOWA

CITY           SKY/WX    TMP DP  RH WIND       PRES   REMARKS
CARROLL *      SUNNY     66  59  77 S8        30.09F
CHEROKEE *     MOSUNNY   70  59  68 S13       30.07F
DENISON *      SUNNY     68  59  73 S13       30.06F
LE MARS *      SUNNY     70  55  60 S16       30.05F
ORANGE CITY *  SUNNY     70  55  60 S13       30.06S
SHELDON *      SUNNY     70  55  60 S15       30.05S
SIOUX CITY     PTSUNNY   70  55  59 S14       30.05F
SPENCER        MOSUNNY   70  58  65 S13       30.08F
STORM LAKE *   SUNNY     70  55  60 S16       30.09F
$$

IAZ055>058-069>071-079>083-090>094-281500-
   SOUTHWEST IOWA

CITY           SKY/WX    TMP DP  RH WIND       PRES   REMARKS
ATLANTIC *     SUNNY     68  59  73 S14       30.10S
AUDUBON *      SUNNY     68  61  77 S9        30.10F
CLARINDA *     PTSUNNY   66  59  77 S7        30.11F
COUNCIL BLFS * SUNNY     66  61  82 S8        30.08F
CRESTON *      SUNNY     68  61  77 SE13      30.11F
HARLAN  *      SUNNY     68  61  77 S15G22    30.12S
LAMONI         CLOUDY    70  59  68 SE8       30.12S
RED OAK *      SUNNY     66  59  77 S9        30.09F
SHENANDOAH *   PTSUNNY   64  61  88 SE8       30.08F
$$

IAZ047>049-059>061-072>074-084-281500-
   CENTRAL IOWA

CITY           SKY/WX    TMP DP  RH WIND       PRES   REMARKS
AMES           CLOUDY    69  61  75 S10       30.12F
ANKENY *       SUNNY     70  61  73 S7        30.12S
CHARITON *     SUNNY     68  61  77 SE10      30.13S
DES MOINES     PTSUNNY   70  58  65 S9        30.12F
GRINNELL*      PTSUNNY   68  59  73 S12       30.15F
KNOXVILLE *    SUNNY     68  59  73 SE8       30.12F
MARSHALLTOWN   PTSUNNY   70  58  65 S10       30.13F
PELLA *        PTSUNNY   72  63  73 S8        30.15S
PERRY *          N/A     68  59  73 S14       30.11S
$$

IAZ004>006-015-016-023>025-035-036-281500-
   NORTH CENTRAL IOWA

CITY           SKY/WX    TMP DP  RH WIND       PRES   REMARKS
ALGONA *       SUNNY     72  59  64 S16       30.11F
CLARION *      SUNNY     70 -40   1 S16       30.12F
ESTHERVILLE    MOSUNNY   67  57  70 S16       30.08F
FORT DODGE *   PTSUNNY   70  57  64 S10       30.12S
MASON CITY     PTSUNNY   72  60  66 S13       30.14S
FOREST CITY *  SUNNY     68  59  73 S14       30.12F
IOWA FALLS *     N/A     68  59  73 S10       30.14F
$$

IAZ007>011-017>019-026>030-037>042-050>054-066-281500-
   NORTHEAST IOWA

CITY           SKY/WX    TMP DP  RH WIND       PRES   REMARKS
CEDAR RAPIDS   PTSUNNY   69  60  73 S9        30.16S
CHARLES CITY * SUNNY     70  63  78 S10G16    30.15S
CLINTON *      MOSUNNY   72  61  68 S8        30.22R
DECORAH *      SUNNY     72  59  64 S6G12     30.15S
DUBUQUE        SUNNY     70  60  70 SW6       30.19R
MONTICELLO *   SUNNY     72  61  68 SE6       30.17F
OELWEIN *      SUNNY     70  61  73 S9        30.16F
WATERLOO       PTSUNNY   70  59  68 S8        30.14F
$$

IAZ064-065-067-068-078-281500-
   EAST CENTRAL IOWA

CITY           SKY/WX    TMP DP  RH WIND       PRES   REMARKS
DAVENPORT      MOSUNNY   72  59  63 S10       30.20R
IOWA CITY      PTSUNNY   69  61  75 S7        30.18S
MT. PLEASANT * MOSUNNY   72  61  68 SE12      30.18S
MUSCATINE *    SUNNY     72  61  68 S5        30.18S
QUAD CITIES    MOSUNNY   72  59  63 S12       30.18S
$$

IAZ062-063-075>077-085>089-095>099-281500-
   SOUTHEAST IOWA

CITY           SKY/WX    TMP DP  RH WIND       PRES   REMARKS
BURLINGTON     MOSUNNY   72  60  66 S6        30.18R
FAIRFIELD *    SUNNY     72  59  64 SE10      30.17S
FORT MADISON * SUNNY     72  61  68 SE8       30.19R
KEOKUK *       SUNNY     72  61  68 SE8       30.16S
OSKALOOSA *      N/A     70  59  68 S13       30.15F
CENTERVILLE *  SUNNY     68  68 100 SE10      30.16S
OTTUMWA        PTSUNNY   69  59  70 S12       30.15R
WASHINGTON *   SUNNY     72  61  68 S8        30.18F
$$

ABBREVIATIONS USED IN REMARKS
   TC - TEMPERATURES IN CELSIUS
  WCI - WIND CHILL INDEX
   HX - HEAT INDEX
  VSB - VISIBILITY
$$



USA.gov is the U.S. government's official web portal to all federal, state and local government web resources and services.